| time (UTC) | temp F | wind direction | speed MPH | gust MPH | rain 1hr in | rain 24hr in | rain mn in | humidity % | barometer mb |
| 20260508084349 | 56 | 78 | 5.0 | 10.0 | 0.00 | 0.00 | 0.00 | 80 | 1018.5 |
| 20260508083339 | 56 | 208 | 4.0 | 8.0 | 0.00 | 0.00 | 0.00 | 80 | 1018.4 |
| 20260508082331 | 55 | 63 | 3.0 | 10.0 | 0.00 | 0.00 | 0.00 | 81 | 1018.4 |
| 20260508081320 | 55 | 208 | 3.0 | 9.0 | 0.00 | 0.00 | 0.00 | 81 | 1018.3 |
| 20260508080339 | 55 | 50 | 3.0 | 10.0 | 0.00 | 0.00 | 0.00 | 82 | 1018.3 |
| 20260508075334 | 54 | 88 | 5.0 | 9.0 | 0.00 | 0.00 | 0.00 | 82 | 1018.3 |
| 20260508074326 | 54 | 208 | 5.0 | 8.0 | 0.00 | 0.00 | 0.00 | 82 | 1018.3 |
| 20260508073353 | 54 | 107 | 4.0 | 9.0 | 0.00 | 0.00 | 0.00 | 82 | 1018.3 |
| 20260508072324 | 54 | 97 | 3.0 | 9.0 | 0.00 | 0.00 | 0.00 | 83 | 1018.2 |
| 20260508071349 | 53 | 90 | 2.0 | 8.0 | 0.00 | 0.00 | 0.00 | 83 | 1018.3 |
| 20260508070320 | 53 | 208 | 3.0 | 7.0 | 0.00 | 0.00 | 0.00 | 84 | 1018.2 |
| 20260508065337 | 53 | 89 | 2.0 | 6.0 | 0.00 | 0.00 | 0.00 | 84 | 1018.1 |
| 20260508064349 | 53 | 208 | 2.0 | 7.0 | 0.00 | 0.00 | 0.00 | 84 | 1018.0 |
| 20260508063348 | 52 | 92 | 5.0 | 8.0 | 0.00 | 0.00 | 0.00 | 84 | 1018.0 |
| 20260508062353 | 52 | 92 | 2.0 | 5.0 | 0.00 | 0.00 | 0.00 | 84 | 1017.9 |
| 20260508061330 | 52 | 100 | 2.0 | 5.0 | 0.00 | 0.00 | 0.00 | 85 | 1017.9 |
| 20260508060337 | 52 | 208 | 2.0 | 7.0 | 0.00 | 0.00 | 0.00 | 85 | 1017.8 |
| 20260508055317 | 52 | 93 | 4.0 | 7.0 | 0.00 | 0.00 | 0.00 | 85 | 1017.8 |
| 20260508054349 | 51 | 95 | 3.0 | 6.0 | 0.00 | 0.00 | 0.00 | 86 | 1017.8 |
| 20260508053347 | 51 | 208 | 4.0 | 8.0 | 0.00 | 0.00 | 0.00 | 86 | 1017.8 |
| 20260508052342 | 51 | 70 | 2.0 | 8.0 | 0.00 | 0.00 | 0.00 | 87 | 1017.7 |
| 20260508051349 | 51 | 68 | 2.0 | 4.0 | 0.00 | 0.00 | 0.00 | 87 | 1017.6 |
| 20260508050323 | 51 | 73 | 3.0 | 6.0 | 0.00 | 0.00 | 0.00 | 86 | 1017.5 |
| 20260508045331 | 51 | 208 | 4.0 | 9.0 | 0.00 | 0.00 | 0.00 | 86 | 1017.4 |
| 20260508044341 | 51 | 208 | 4.0 | 8.0 | 0.00 | 0.00 | 0.00 | 86 | 1017.4 |
| 20260508043324 | 51 | 85 | 5.0 | 9.0 | 0.00 | 0.00 | 0.00 | 85 | 1017.4 |
| 20260508042338 | 51 | 78 | 6.0 | 9.0 | 0.00 | 0.00 | 0.00 | 85 | 1017.4 |
| 20260508041331 | 51 | 208 | 4.0 | 10.0 | 0.00 | 0.00 | 0.00 | 85 | 1017.3 |
| 20260508040321 | 51 | 208 | 5.0 | 10.0 | 0.00 | 0.00 | 0.00 | 85 | 1017.3 |
| 20260508035332 | 52 | 102 | 4.0 | 8.0 | 0.00 | 0.00 | 0.00 | 84 | 1017.2 |
| 20260508034323 | 52 | 86 | 3.0 | 6.0 | 0.00 | 0.00 | 0.00 | 84 | 1017.2 |
| 20260508033345 | 52 | 208 | 2.0 | 6.0 | 0.00 | 0.00 | 0.00 | 84 | 1017.1 |
| 20260508032351 | 52 | 91 | 2.0 | 5.0 | 0.00 | 0.00 | 0.00 | 84 | 1017.2 |
| 20260508031341 | 52 | 84 | 2.0 | 5.0 | 0.00 | 0.00 | 0.00 | 83 | 1017.1 |
| 20260508030354 | 52 | 84 | 2.0 | 5.0 | 0.00 | 0.00 | 0.00 | 83 | 1017.1 |
| 20260508025348 | 53 | 208 | 2.0 | 4.0 | 0.00 | 0.00 | 0.00 | 83 | 1017.1 |
| 20260508024359 | 53 | 208 | 2.0 | 3.0 | 0.00 | 0.00 | 0.00 | 82 | 1017.0 |
| 20260508023324 | 53 | 208 | 3.0 | 4.0 | 0.00 | 0.00 | 0.00 | 82 | 1017.1 |
| 20260508022337 | 53 | 208 | 3.0 | 4.0 | 0.00 | 0.00 | 0.00 | 82 | 1017.0 |
| 20260508021325 | 53 | 208 | 2.0 | 4.0 | 0.00 | 0.00 | 0.00 | 81 | 1017.1 |
| 20260508020338 | 53 | 74 | 2.0 | 6.0 | 0.00 | 0.00 | 0.00 | 81 | 1017.1 |
| 20260508015340 | 53 | 208 | 2.0 | 5.0 | 0.00 | 0.00 | 0.00 | 81 | 1017.0 |
| 20260508014345 | 53 | 59 | 3.0 | 5.0 | 0.00 | 0.00 | 0.00 | 80 | 1017.0 |
| 20260508013321 | 54 | 84 | 2.0 | 5.0 | 0.00 | 0.00 | 0.00 | 80 | 1017.0 |
| 20260508012323 | 54 | 79 | 2.0 | 4.0 | 0.00 | 0.00 | 0.00 | 79 | 1017.1 |
| 20260508011334 | 54 | 80 | 2.0 | 4.0 | 0.00 | 0.00 | 0.00 | 79 | 1017.0 |
| 20260508010327 | 54 | 100 | 1.0 | 4.0 | 0.00 | 0.00 | 0.00 | 78 | 1017.0 |
| 20260508005323 | 54 | 208 | 1.0 | 3.0 | 0.00 | 0.00 | 0.00 | 78 | 1017.0 |
| 20260508004338 | 54 | 89 | 0.0 | 1.0 | 0.00 | 0.00 | 0.00 | 77 | 1017.1 |
| 20260508003325 | 54 | 89 | 0.0 | 1.0 | 0.00 | 0.00 | 0.00 | 76 | 1017.2 |
| 20260508002336 | 54 | 89 | 0.0 | 1.0 | 0.00 | 0.00 | 0.00 | 76 | 1017.2 |
| 20260508001324 | 54 | 89 | 0.0 | 0.0 | 0.00 | 0.00 | 0.00 | 76 | 1017.1 |
| 20260508000335 | 54 | 89 | 0.0 | 1.0 | 0.00 | 0.00 | 0.00 | 76 | 1017.1 |
| 20260507235337 | 54 | 89 | 1.0 | 3.0 | 0.00 | 0.00 | 0.00 | 75 | 1017.2 |
| 20260507234336 | 55 | 80 | 0.0 | 0.0 | 0.00 | 0.00 | 0.00 | 75 | 1017.3 |
| 20260507233323 | 55 | 80 | 0.0 | 0.0 | 0.00 | 0.00 | 0.00 | 75 | 1017.3 |
| 20260507232340 | 55 | 80 | 0.0 | 2.0 | 0.00 | 0.00 | 0.00 | 75 | 1017.3 |
| 20260507231332 | 55 | 80 | 1.0 | 3.0 | 0.00 | 0.00 | 0.00 | 74 | 1017.3 |
| 20260507230334 | 55 | 78 | 0.0 | 1.0 | 0.00 | 0.00 | 0.00 | 73 | 1017.3 |
| 20260507225346 | 55 | 78 | 0.0 | 1.0 | 0.00 | 0.00 | 0.00 | 73 | 1017.3 |
| 20260507224333 | 55 | 78 | 0.0 | 1.0 | 0.00 | 0.00 | 0.00 | 73 | 1017.4 |
| 20260507223321 | 55 | 78 | 0.0 | 0.0 | 0.00 | 0.00 | 0.00 | 73 | 1017.4 |
| 20260507222338 | 55 | 78 | 0.0 | 1.0 | 0.00 | 0.00 | 0.00 | 73 | 1017.4 |
| 20260507221347 | 56 | 79 | 0.0 | 1.0 | 0.00 | 0.00 | 0.00 | 73 | 1017.4 |
| 20260507220336 | 56 | 79 | 0.0 | 0.0 | 0.00 | 0.00 | 0.00 | 72 | 1017.4 |
| 20260507215333 | 56 | 79 | 0.0 | 0.0 | 0.00 | 0.00 | 0.00 | 72 | 1017.3 |
| 20260507214340 | 56 | 79 | 0.0 | 1.0 | 0.00 | 0.00 | 0.00 | 72 | 1017.3 |
| 20260507213329 | 56 | 79 | 0.0 | 1.0 | 0.00 | 0.00 | 0.00 | 72 | 1017.2 |
| 20260507212335 | 56 | 79 | 0.0 | 2.0 | 0.00 | 0.00 | 0.00 | 71 | 1017.2 |
| 20260507211329 | 56 | 78 | 0.0 | 1.0 | 0.00 | 0.00 | 0.00 | 71 | 1017.3 |
| 20260507210319 | 56 | 80 | 0.0 | 2.0 | 0.00 | 0.00 | 0.00 | 71 | 1017.3 |
| 20260507205337 | 56 | 80 | 0.0 | 1.0 | 0.00 | 0.00 | 0.00 | 70 | 1017.2 |
| 20260507204326 | 57 | 80 | 0.0 | 0.0 | 0.00 | 0.00 | 0.00 | 69 | 1017.2 |
| 20260507203334 | 57 | 80 | 0.0 | 3.0 | 0.00 | 0.00 | 0.00 | 69 | 1017.1 |
| 20260507202331 | 57 | 80 | 0.0 | 2.0 | 0.00 | 0.00 | 0.00 | 69 | 1017.0 |
| 20260507201327 | 57 | 81 | 1.0 | 3.0 | 0.00 | 0.00 | 0.00 | 68 | 1016.9 |
| 20260507200346 | 57 | 69 | 3.0 | 5.0 | 0.00 | 0.00 | 0.00 | 68 | 1016.8 |
| 20260507195339 | 57 | 79 | 2.0 | 5.0 | 0.00 | 0.00 | 0.00 | 67 | 1016.7 |
| 20260507194327 | 57 | 84 | 2.0 | 4.0 | 0.00 | 0.00 | 0.00 | 66 | 1016.7 |
| 20260507193340 | 58 | 72 | 2.0 | 5.0 | 0.00 | 0.00 | 0.00 | 66 | 1016.6 |
| 20260507192352 | 58 | 85 | 2.0 | 5.0 | 0.00 | 0.00 | 0.00 | 66 | 1016.5 |
| 20260507191329 | 58 | 71 | 3.0 | 9.0 | 0.00 | 0.00 | 0.00 | 65 | 1016.5 |
| 20260507190336 | 58 | 89 | 5.0 | 6.0 | 0.00 | 0.00 | 0.00 | 65 | 1016.5 |
| 20260507185320 | 58 | 208 | 1.0 | 5.0 | 0.00 | 0.00 | 0.00 | 64 | 1016.5 |
| 20260507184332 | 58 | 15 | 0.0 | 1.0 | 0.00 | 0.00 | 0.00 | 61 | 1016.5 |
| 20260507183337 | 59 | 15 | 0.0 | 1.0 | 0.00 | 0.00 | 0.00 | 61 | 1016.4 |
| 20260507182348 | 59 | 15 | 0.0 | 1.0 | 0.00 | 0.00 | 0.00 | 61 | 1016.4 |
| 20260507181326 | 59 | 15 | 0.0 | 1.0 | 0.00 | 0.00 | 0.00 | 60 | 1016.4 |
| 20260507180353 | 59 | 15 | 0.0 | 2.0 | 0.00 | 0.00 | 0.00 | 59 | 1016.4 |
| 20260507175334 | 59 | 15 | 0.0 | 2.0 | 0.00 | 0.00 | 0.00 | 58 | 1016.4 |
| 20260507174333 | 59 | 13 | 0.0 | 2.0 | 0.00 | 0.00 | 0.00 | 58 | 1016.3 |
| 20260507173349 | 59 | 13 | 0.0 | 3.0 | 0.00 | 0.00 | 0.00 | 58 | 1016.3 |
| 20260507172336 | 59 | 9 | 0.0 | 3.0 | 0.00 | 0.00 | 0.00 | 58 | 1016.4 |
| 20260507171331 | 60 | 6 | 0.0 | 1.0 | 0.00 | 0.00 | 0.00 | 58 | 1016.4 |
| 20260507170338 | 60 | 5 | 0.0 | 3.0 | 0.00 | 0.00 | 0.00 | 58 | 1016.4 |
| 20260507165334 | 60 | 348 | 1.0 | 4.0 | 0.00 | 0.00 | 0.00 | 57 | 1016.3 |
| 20260507164324 | 60 | 1 | 0.0 | 2.0 | 0.00 | 0.00 | 0.00 | 58 | 1016.2 |
| 20260507163332 | 60 | 17 | 1.0 | 3.0 | 0.00 | 0.00 | 0.00 | 58 | 1016.2 |
| 20260507162346 | 60 | 4 | 1.0 | 3.0 | 0.00 | 0.00 | 0.00 | 57 | 1016.2 |
| 20260507161337 | 60 | 8 | 1.0 | 6.0 | 0.00 | 0.00 | 0.00 | 56 | 1016.2 |
| 20260507160333 | 60 | 21 | 0.0 | 4.0 | 0.00 | 0.00 | 0.00 | 55 | 1016.2 |
| 20260507155331 | 60 | 57 | 1.0 | 3.0 | 0.00 | 0.00 | 0.00 | 56 | 1016.2 |
| 20260507154325 | 61 | 357 | 1.0 | 4.0 | 0.00 | 0.00 | 0.00 | 56 | 1016.1 |
| 20260507153322 | 61 | 80 | 2.0 | 8.0 | 0.00 | 0.00 | 0.00 | 56 | 1016.1 |
| 20260507152358 | 61 | 21 | 1.0 | 6.0 | 0.00 | 0.00 | 0.00 | 55 | 1016.0 |
| 20260507151331 | 62 | 327 | 1.0 | 4.0 | 0.00 | 0.00 | 0.00 | 53 | 1016.0 |
| 20260507150345 | 62 | 349 | 2.0 | 9.0 | 0.00 | 0.00 | 0.00 | 54 | 1016.0 |
| 20260507145339 | 62 | 19 | 1.0 | 11.0 | 0.00 | 0.00 | 0.00 | 56 | 1016.0 |
| 20260507144351 | 62 | 352 | 2.0 | 5.0 | 0.00 | 0.00 | 0.00 | 56 | 1016.0 |
| 20260507143342 | 63 | 2 | 2.0 | 5.0 | 0.00 | 0.00 | 0.00 | 52 | 1016.0 |
| 20260507142343 | 63 | 342 | 1.0 | 9.0 | 0.00 | 0.00 | 0.00 | 47 | 1016.0 |
| 20260507141328 | 63 | 347 | 0.0 | 3.0 | 0.00 | 0.00 | 0.00 | 47 | 1016.0 |
| 20260507140322 | 64 | 86 | 1.0 | 8.0 | 0.00 | 0.00 | 0.00 | 40 | 1016.1 |
| 20260507135328 | 64 | 353 | 0.0 | 6.0 | 0.00 | 0.00 | 0.00 | 42 | 1016.1 |
| 20260507134327 | 64 | 94 | 1.0 | 3.0 | 0.00 | 0.00 | 0.00 | 43 | 1016.2 |
| 20260507133339 | 64 | 48 | 2.0 | 6.0 | 0.00 | 0.00 | 0.00 | 44 | 1016.2 |
| 20260507132331 | 65 | 77 | 6.0 | 11.0 | 0.00 | 0.00 | 0.00 | 43 | 1016.2 |
| 20260507131337 | 68 | 30 | 1.0 | 5.0 | 0.00 | 0.00 | 0.00 | 41 | 1016.2 |
| 20260507130327 | 67 | 95 | 1.0 | 12.0 | 0.00 | 0.00 | 0.00 | 44 | 1016.2 |
| 20260507125339 | 66 | 71 | 5.0 | 14.0 | 0.00 | 0.00 | 0.00 | 45 | 1016.1 |
| 20260507124323 | 65 | 84 | 2.0 | 12.0 | 0.00 | 0.00 | 0.00 | 46 | 1016.2 |
| 20260507123353 | 64 | 92 | 6.0 | 11.0 | 0.00 | 0.00 | 0.00 | 48 | 1016.1 |
| 20260507122328 | 62 | 208 | 5.0 | 11.0 | 0.00 | 0.00 | 0.00 | 53 | 1016.2 |
| 20260507121331 | 62 | 208 | 3.0 | 10.0 | 0.00 | 0.00 | 0.00 | 51 | 1016.2 |
| 20260507120329 | 63 | 91 | 4.0 | 9.0 | 0.00 | 0.00 | 0.00 | 50 | 1016.2 |
| 20260507115334 | 63 | 80 | 6.0 | 10.0 | 0.00 | 0.00 | 0.00 | 51 | 1016.3 |
| 20260507114355 | 66 | 208 | 7.0 | 12.0 | 0.00 | 0.00 | 0.00 | 44 | 1016.3 |
| 20260507113328 | 66 | 104 | 4.0 | 10.0 | 0.00 | 0.00 | 0.00 | 46 | 1016.3 |
| 20260507112320 | 67 | 208 | 4.0 | 11.0 | 0.00 | 0.00 | 0.00 | 47 | 1016.3 |
| 20260507111333 | 66 | 13 | 2.0 | 9.0 | 0.00 | 0.00 | 0.00 | 48 | 1016.4 |
| 20260507110342 | 65 | 46 | 1.0 | 12.0 | 0.00 | 0.00 | 0.00 | 50 | 1016.4 |
| 20260507105347 | 63 | 208 | 1.0 | 8.0 | 0.00 | 0.00 | 0.00 | 55 | 1016.4 |
| 20260507104352 | 62 | 346 | 1.0 | 6.0 | 0.00 | 0.00 | 0.00 | 56 | 1016.4 |
| 20260507103328 | 62 | 359 | 1.0 | 5.0 | 0.00 | 0.00 | 0.00 | 57 | 1016.5 |
| 20260507102341 | 63 | 273 | 2.0 | 5.0 | 0.00 | 0.00 | 0.00 | 54 | 1016.5 |
| 20260507101348 | 62 | 307 | 1.0 | 5.0 | 0.00 | 0.00 | 0.00 | 57 | 1016.4 |
| 20260507100355 | 61 | 8 | 1.0 | 6.0 | 0.00 | 0.00 | 0.00 | 58 | 1016.4 |
| 20260507095342 | 61 | 350 | 1.0 | 7.0 | 0.00 | 0.00 | 0.00 | 57 | 1016.4 |
| 20260507094356 | 61 | 346 | 1.0 | 4.0 | 0.00 | 0.00 | 0.00 | 58 | 1016.4 |
| 20260507093329 | 60 | 358 | 0.0 | 3.0 | 0.00 | 0.00 | 0.00 | 59 | 1016.3 |
| 20260507092337 | 60 | 7 | 1.0 | 7.0 | 0.00 | 0.00 | 0.00 | 59 | 1016.2 |
| 20260507091352 | 60 | 7 | 2.0 | 6.0 | 0.00 | 0.00 | 0.00 | 61 | 1016.2 |
| 20260507090321 | 59 | 13 | 1.0 | 5.0 | 0.00 | 0.00 | 0.00 | 64 | 1016.2 |
| 20260507085331 | 59 | 9 | 1.0 | 4.0 | 0.00 | 0.00 | 0.00 | 65 | 1016.1 |